• In Uzbekistan
  • List of Countries
  • For 7 days
  • Water Temperature
  • Satellite Maps
  • Weather Map
  • Weather Widgets
  • user-avatar
    Login

    Hourly Weather Mafeteng

    Today, 21 October, Saturday

    Time Temperature Precipitation Wind Pressure Humidity
    00:00 +12°C° 0 mm 1 mps 628 mmHg 26%
    01:00 +11°C° 0 mm 1 mps 628 mmHg 28%
    02:00 +11°C° 0 mm 1 mps 627 mmHg 29%
    03:00 +10°C° 0 mm 1 mps 627 mmHg 31%
    04:00 +10°C° 0 mm 1 mps 627 mmHg 32%
    05:00 +9°C° 0 mm 1 mps 627 mmHg 34%
    06:00 +12°C° 0 mm 1 mps 629 mmHg 30%
    07:00 +14°C° 0 mm 1 mps 630 mmHg 25%
    08:00 +18°C° 0 mm 1 mps 631 mmHg 21%
    09:00 +20°C° 0 mm 1 mps 631 mmHg 18%
    10:00 +21°C° 0 mm 1 mps 632 mmHg 15%
    11:00 +23°C° 0 mm 2 mps 632 mmHg 12%
    12:00 +24°C° 0 mm 2 mps 632 mmHg 11%
    13:00 +25°C° 0 mm 2 mps 632 mmHg 11%
    14:00 +26°C° 0 mm 2 mps 631 mmHg 10%
    15:00 +26°C° 0 mm 2 mps 631 mmHg 10%
    16:00 +26°C° 0 mm 2 mps 631 mmHg 10%
    17:00 +26°C° 0 mm 2 mps 631 mmHg 10%
    18:00 +24°C° 0 mm 2 mps 630 mmHg 12%
    19:00 +21°C° 0 mm 2 mps 630 mmHg 13%
    20:00 +19°C° 0 mm 2 mps 629 mmHg 15%
    21:00 +18°C° 0 mm 2 mps 629 mmHg 17%
    22:00 +17°C° 0 mm 2 mps 630 mmHg 19%
    23:00 +16°C° 0 mm 1 mps 630 mmHg 21%

    Tomorrow, 22 October, Sunday

    Time Temperature Precipitation Wind Pressure Humidity
    00:00 +16°C° 0 mm 2 mps 630 mmHg 28%
    01:00 +15°C° 0 mm 2 mps 629 mmHg 36%
    02:00 +15°C° 0 mm 2 mps 629 mmHg 43%
    03:00 +15°C° 0 mm 2 mps 629 mmHg 48%
    04:00 +14°C° 0 mm 2 mps 629 mmHg 54%
    05:00 +14°C° 0 mm 2 mps 629 mmHg 59%
    06:00 +15°C° 0 mm 4 mps 630 mmHg 58%
    07:00 +17°C° 0 mm 5 mps 630 mmHg 56%
    08:00 +18°C° 0 mm 7 mps 631 mmHg 55%
    09:00 +21°C° 0 mm 7 mps 631 mmHg 49%
    10:00 +24°C° 0 mm 8 mps 631 mmHg 44%
    11:00 +27°C° 0 mm 8 mps 632 mmHg 38%
    12:00 +27°C° 0 mm 8 mps 631 mmHg 35%
    13:00 +27°C° 0 mm 8 mps 630 mmHg 33%
    14:00 +28°C° 0 mm 7 mps 630 mmHg 30%
    15:00 +27°C° 0.1 mm 7 mps 630 mmHg 31%
    16:00 +27°C° 0.1 mm 6 mps 630 mmHg 31%
    17:00 +27°C° 0.1 mm 5 mps 630 mmHg 32%
    18:00 +25°C° 1 mm 4 mps 629 mmHg 42%
    19:00 +22°C° 1 mm 4 mps 629 mmHg 52%
    20:00 +20°C° 1 mm 4 mps 629 mmHg 61%
    21:00 +19°C° 0.2 mm 4 mps 629 mmHg 64%
    22:00 +18°C° 0.2 mm 3 mps 629 mmHg 67%
    23:00 +18°C° 0.2 mm 3 mps 629 mmHg 71%

    Day after tomorrow, 23 October, Monday

    Time Temperature Precipitation Wind Pressure Humidity
    00:00 +18°C° 0.2 mm 3 mps 629 mmHg 72%
    01:00 +17°C° 0.2 mm 3 mps 629 mmHg 74%
    02:00 +17°C° 0.2 mm 4 mps 629 mmHg 76%
    03:00 +17°C° 0 mm 3 mps 628 mmHg 77%
    04:00 +16°C° 0 mm 3 mps 628 mmHg 77%
    05:00 +16°C° 0 mm 3 mps 628 mmHg 78%
    06:00 +18°C° 0.1 mm 3 mps 629 mmHg 70%
    07:00 +19°C° 0.1 mm 4 mps 629 mmHg 62%
    08:00 +21°C° 0.1 mm 5 mps 630 mmHg 54%
    09:00 +22°C° 0 mm 5 mps 630 mmHg 49%
    10:00 +24°C° 0 mm 6 mps 630 mmHg 43%
    11:00 +27°C° 0 mm 7 mps 631 mmHg 37%
    12:00 +28°C° 0 mm 7 mps 630 mmHg 36%
    13:00 +29°C° 0 mm 8 mps 630 mmHg 34%
    14:00 +29°C° 0 mm 8 mps 629 mmHg 33%
    15:00 +29°C° 0.1 mm 7 mps 629 mmHg 33%
    16:00 +29°C° 0.1 mm 6 mps 629 mmHg 34%
    17:00 +28°C° 0.1 mm 6 mps 628 mmHg 34%
    18:00 +26°C° 6.3 mm 5 mps 628 mmHg 47%
    19:00 +22°C° 6.3 mm 4 mps 627 mmHg 60%
    20:00 +20°C° 6.3 mm 3 mps 627 mmHg 73%
    21:00 +19°C° 2.2 mm 3 mps 627 mmHg 74%
    22:00 +19°C° 2.2 mm 2 mps 627 mmHg 75%
    23:00 +19°C° 2.2 mm 2 mps 627 mmHg 77%

    24 October, Tuesday

    Time Temperature Precipitation Wind Pressure Humidity
    00:00 +19°C° 0.2 mm 2 mps 627 mmHg 77%
    01:00 +18°C° 0.2 mm 2 mps 626 mmHg 77%
    02:00 +18°C° 0.2 mm 2 mps 626 mmHg 77%
    03:00 +18°C° 0 mm 2 mps 626 mmHg 76%
    04:00 +17°C° 0 mm 2 mps 626 mmHg 75%
    05:00 +17°C° 0 mm 2 mps 626 mmHg 74%
    06:00 +19°C° 0 mm 2 mps 627 mmHg 66%
    07:00 +20°C° 0 mm 2 mps 628 mmHg 57%
    08:00 +23°C° 0 mm 2 mps 629 mmHg 49%
    09:00 +25°C° 0 mm 3 mps 629 mmHg 39%
    10:00 +27°C° 0 mm 5 mps 629 mmHg 30%
    11:00 +29°C° 0 mm 6 mps 630 mmHg 20%
    12:00 +30°C° 0 mm 7 mps 629 mmHg 18%
    13:00 +30°C° 0 mm 7 mps 629 mmHg 15%
    14:00 +32°C° 0 mm 8 mps 629 mmHg 13%
    15:00 +32°C° 0 mm 7 mps 629 mmHg 13%
    16:00 +30°C° 0 mm 7 mps 628 mmHg 13%
    17:00 +30°C° 0 mm 6 mps 628 mmHg 14%
    18:00 +28°C° 0 mm 5 mps 627 mmHg 17%
    19:00 +26°C° 0 mm 3 mps 627 mmHg 20%
    20:00 +23°C° 0 mm 2 mps 627 mmHg 23%
    21:00 +23°C° 0 mm 2 mps 627 mmHg 23%
    22:00 +23°C° 0 mm 2 mps 627 mmHg 24%
    23:00 +23°C° 0 mm 2 mps 627 mmHg 24%

    25 October, Wednesday

    Time Temperature Precipitation Wind Pressure Humidity
    00:00 +23°C° 0 mm 2 mps 627 mmHg 27%
    01:00 +21°C° 0 mm 2 mps 626 mmHg 29%
    02:00 +21°C° 0 mm 3 mps 626 mmHg 31%
    03:00 +20°C° 0 mm 3 mps 626 mmHg 35%
    04:00 +19°C° 0 mm 3 mps 625 mmHg 39%
    05:00 +19°C° 0 mm 3 mps 625 mmHg 43%
    06:00 +20°C° 0 mm 3 mps 626 mmHg 42%
    07:00 +22°C° 0 mm 4 mps 626 mmHg 41%
    08:00 +25°C° 0 mm 5 mps 627 mmHg 39%
    09:00 +26°C° 0 mm 6 mps 627 mmHg 34%
    10:00 +28°C° 0 mm 7 mps 627 mmHg 29%
    11:00 +31°C° 0 mm 9 mps 627 mmHg 24%
    12:00 +31°C° 0 mm 8 mps 627 mmHg 26%
    13:00 +31°C° 0 mm 8 mps 626 mmHg 27%
    14:00 +29°C° 0 mm 8 mps 626 mmHg 28%
    15:00 +28°C° 0.6 mm 7 mps 625 mmHg 34%
    16:00 +26°C° 0.6 mm 6 mps 624 mmHg 40%
    17:00 +25°C° 0.6 mm 4 mps 623 mmHg 46%
    18:00 +23°C° 0.6 mm 4 mps 624 mmHg 50%
    19:00 +22°C° 0.6 mm 4 mps 624 mmHg 53%
    20:00 +21°C° 0.6 mm 4 mps 624 mmHg 57%
    21:00 +20°C° 0.1 mm 3 mps 624 mmHg 58%
    22:00 +20°C° 0.1 mm 3 mps 624 mmHg 60%
    23:00 +19°C° 0.1 mm 3 mps 624 mmHg 61%

    26 October, Thursday

    Time Temperature Precipitation Wind Pressure Humidity
    00:00 +19°C° 0 mm 3 mps 624 mmHg 61%
    01:00 +18°C° 0 mm 3 mps 623 mmHg 60%
    02:00 +18°C° 0 mm 2 mps 623 mmHg 59%
    03:00 +17°C° 0 mm 2 mps 623 mmHg 57%
    04:00 +16°C° 0 mm 2 mps 622 mmHg 55%
    05:00 +16°C° 0 mm 2 mps 622 mmHg 53%
    06:00 +18°C° 0 mm 2 mps 623 mmHg 44%
    07:00 +19°C° 0 mm 2 mps 624 mmHg 35%
    08:00 +21°C° 0 mm 2 mps 625 mmHg 26%
    09:00 +22°C° 0 mm 3 mps 625 mmHg 22%
    10:00 +25°C° 0 mm 5 mps 625 mmHg 18%
    11:00 +26°C° 0 mm 6 mps 626 mmHg 14%
    12:00 +27°C° 0 mm 7 mps 625 mmHg 14%
    13:00 +28°C° 0 mm 8 mps 625 mmHg 14%
    14:00 +28°C° 0 mm 8 mps 625 mmHg 14%
    15:00 +28°C° 0 mm 8 mps 624 mmHg 15%
    16:00 +27°C° 0 mm 8 mps 624 mmHg 16%
    17:00 +27°C° 0 mm 8 mps 624 mmHg 17%
    18:00 +24°C° 0 mm 7 mps 624 mmHg 20%
    19:00 +22°C° 0 mm 5 mps 624 mmHg 24%
    20:00 +20°C° 0 mm 3 mps 624 mmHg 27%
    21:00 +19°C° 0 mm 3 mps 624 mmHg 31%
    22:00 +18°C° 0 mm 3 mps 624 mmHg 36%
    23:00 +17°C° 0 mm 2 mps 624 mmHg 41%
    Show more